Showing default

ION SCV-007, 55060

Orbit data source: Space-Track

ION SCV-007, 55060 is a payload satellite owned by D-ORBIT (IT) in SSO that was launched on Tue, 03 Jan 2023 UTC via an FALCON 9 launch vehicle from the Air Force Eastern Test Range (AFETR). Payload-class satellites include a variety of spacecraft equipped with specific instruments for various scientific and technological missions. These include communications satellites like Starlink; space stations such as the ISS; scientific satellites like the Hubble; Earth observation satellites from companies like Planet Labs, Umbra, and HawkEye 360; GPS; miniature CubeSats for education and research; and military/defense satellites.

Loading next visibility...
Identifier
55060, 2023-001BD
Orbit
SSO
Country
Flag of ITIT
Related business
Manufacturer
D-ORBIT
Mission
Operational Commercial Technology
Bus & Motor
ION-SC, PM200
Mass
220 kg wet, 150 kg dry
Launch date (UTC)
2023-01-03 (4 years ago)
Launch vehicle
FALCON 9
Launch site
Air Force Eastern Test Range (AFETR)
Object type
Payload
Rocket body
Debris
Shape & HBR
Box, 0.2 m
Radar Cross Section
0.240 m², Large (>1 m²)

Expand to show TLE details & history
Last TLE update: 1 day ago

TLE from 1 day ago
0 ION SCV-007
1 55060U 23001BD  26235.17245690  .00000324  00000-0  52349-4 0  9990
2 55060  97.8951 296.8400 0013630 116.7649 243.4958 14.77603417196149
Epoch: 2026-08-23T04:08Z
TLE epoch observation values (Epoch: 2026-08-23T04:08:20.276Z)
Latitude
0.00001°
Longitude
-96.71681°
Altitude
644.196 km
Speed
7.534 km/s
True Right ascension
19h 47m 21s
True Declination
0° 00' 00"
Sunlit
Object was in full shadow at epoch
Visualization orbit readout
Latitude
Unknown
Longitude
Unknown
Altitude
Unknown
Speed
Unknown
Apparent Right ascension
Unknown
Apparent Declination
Unknown
Sunlit
N/A
Visualization observer readout
Local Sidereal Time
19:33:46
Azimuth
Unknown
Elevation
Unknown
Doppler factor
Unknown
Orbital elements
Apogee altitude
643.501 km
Perigee altitude
624.386 km
Semi-major axis
7,012.08 km
Eccentricity
0.00136
Inclination
97.8951°
RAAN
296.84°
Arg. of periapsis
116.7649°
True anomaly
243.35613°
Mean anomaly
243.4958°
Eccentric anomaly
243.42596°
Mean motion
3.69635 °/min
Orbital period
97.39 mins
BSTAR
0.000052349
Loading maneuver chart data...
Computing Atmospheric mass density...

Documentation

Showing up to 5 results
|